This is the latest recevied weather packets stored in our database for station/object N0NPO. If no packets are shown the sender has not sent any weather packets the latest 10 day(s).
| Time | Temp. | Humidity | Pressure | Rain* | Wind** | Luminosity | Snow |
|---|---|---|---|---|---|---|---|
| 1777846562 | 20° C | 1% | 1012.3 hPa | 0 mm | - | 445 W/m² | - |
| 1777846259 | 20° C | 1% | 1012.2 hPa | 0 mm | - | 493 W/m² | - |
| 1777845955 | 20.56° C | 1% | 1012.3 hPa | 0 mm | - | 362 W/m² | - |
| 1777845652 | 20.56° C | 1% | 1012.5 hPa | 0 mm | - | 453 W/m² | - |
| 1777845349 | 20.56° C | 1% | 1012.3 hPa | 0 mm | - | 492 W/m² | - |
| 1777845046 | 20° C | 1% | 1012.5 hPa | 0 mm | - | 486 W/m² | - |
| 1777844744 | 20° C | 1% | 1012.6 hPa | 0 mm | - | 548 W/m² | - |
| 1777844440 | 20.56° C | 1% | 1012.7 hPa | 0 mm | - | 543 W/m² | - |
| 1777844139 | 20.56° C | 1% | 1012.7 hPa | 0 mm | - | 574 W/m² | - |
| 1777843836 | 21.11° C | 1% | 1013 hPa | 0 mm | - | 593 W/m² | - |
| 1777843533 | 20° C | 1% | 1013 hPa | 0 mm | - | 573 W/m² | - |
| 1777843230 | 20° C | 1% | 1013.1 hPa | 0 mm | - | 575 W/m² | - |
| 1777842927 | 20° C | 1% | 1013.2 hPa | 0 mm | - | 615 W/m² | - |
| 1777842623 | 20° C | 1% | 1013.4 hPa | 0 mm | - | 554 W/m² | - |
| 1777842320 | 19.44° C | 1% | 1013.6 hPa | 0 mm | - | 564 W/m² | - |
| 1777842015 | 20° C | 1% | 1013.6 hPa | 0 mm | - | 532 W/m² | - |
| 1777841712 | 19.44° C | 1% | 1013.8 hPa | 0 mm | - | 536 W/m² | - |
| 1777841409 | 19.44° C | 1% | 1013.8 hPa | 0 mm | - | 647 W/m² | - |
| 1777841106 | 20° C | 1% | 1014 hPa | 0 mm | - | 653 W/m² | - |
| 1777840802 | 20° C | 1% | 1014 hPa | 0 mm | - | 603 W/m² | - |
| 1777840500 | 19.44° C | 1% | 1013.9 hPa | 0 mm | - | 657 W/m² | - |
| 1777840196 | 19.44° C | 1% | 1014.1 hPa | 0 mm | - | 634 W/m² | - |
| 1777839895 | 19.44° C | 1% | 1014.3 hPa | 0 mm | - | 614 W/m² | - |
| 1777839593 | 18.89° C | 1% | 1014.5 hPa | 0 mm | - | 635 W/m² | - |
| 1777839290 | 18.89° C | 1% | 1014.8 hPa | 0 mm | - | 654 W/m² | - |
* Rain latest hour (hover to see other rain measurements)
** Current wind speed in m/s (hover to see current wind gust speed)